Retour au catalogue

FENGYUN 1C DEB

ActifLEO
NORAD 31503·DEBRIS·🇨🇳 China

Lancé May 10, 1999 depuis Taiyuan Satellite Launch Center

Loading…

Prochains Passages (prochaines 24 heures)

TLE

VieillissantSource: Space-Track

Époque: Sep 10, 2026, 11:55 UTC

1 31503U 99025BWS 26253.49702730  .00001050  00000-0  47966-3 0  9998
2 31503 100.0785 163.9677 0048241 151.8073 208.5728 14.23556521681122

Suivez FENGYUN 1C DEB en temps réel avec AllMySat

Download on the App Store